Regional Weather Roundup
Issued by NWS

Home | Current Version | Previous Version | Text Only | Print | Product List | Glossary Off
Versions: 1 2 3 4 5 6 7 8 9 10 11 12 13 14 15 16 17 18 19 20 21 22 23 24 25 26 27 28 29 30 31 32 33 34 35 36 37 38 39 40 41 42 43 44 45 46 47 48 49 50

000
ASUS44 KMEG 212310
RWRTN
TENNESSEE HOURLY STATE WEATHER ROUNDUP
NATIONAL WEATHER SERVICE MEMPHIS TN
600 PM CDT SUN MAY 21 2017

TNZ002-004-019-021-049-052-054-088>092-220000-
WEST TENNESSEE

CITY           SKY/WX    TMP DP  RH WIND       PRES   REMARKS
MEMPHIS INTL   PTSUNNY   77  54  44 W7        30.06R
NWS MEMPHIS      N/A     76 N/A N/A MISG        N/A
JACKSON        SUNNY     78  52  40 W9        30.05R
DYERSBURG      SUNNY     77  55  46 W6        30.05R
SOMERVILLE     SUNNY     77  54  44 W5        30.05S
COVINGTON      SUNNY     77  55  47 W9        30.05S
UNION CITY     SUNNY     77  52  41 VRB5G12   30.02S
BOLIVAR        SUNNY     75  57  53 SW7       30.05R
PARIS          SUNNY     77  52  41 W9        30.02R
HUNTINGDON     SUNNY     77  54  44 W6G12     30.02S
SELMER         MOSUNNY   75  66  73 CALM      30.05R
SAVANNAH       MOSUNNY   77  66  69 W7        30.03S
$$

TNZ008-025-027-028-033-062-065-066-220000-
NORTH MIDDLE TENNESSEE

CITY           SKY/WX    TMP DP  RH WIND       PRES   REMARKS
NASHVILLE      PTSUNNY   80  66  62 SW8       30.00F
PORTLAND       MOSUNNY   79  66  65 W8        29.99S
CLARKSVILLE    SUNNY     78  58  49 SW10      30.00F
SMYRNA         PTSUNNY   80  68  66 SW9       30.01
COOKEVILLE     SUNNY     79  68  69 W3        30.01S
GALLATIN       PTSUNNY   81  66  61 VRB6G14   30.02R
CROSSVILLE     PTSUNNY   71  66  84 S3        30.07S
$$

TNZ061-075-076-078-094-096-097-220000-
SOUTH MIDDLE TENNESSEE

CITY           SKY/WX    TMP DP  RH WIND       PRES   REMARKS
FAYETTEVILLE   CLOUDY    77  68  73 SW12      30.04R
TULLAHOMA      PTSUNNY   75  70  83 NW5       30.05S
WINCHESTER     MOSUNNY   79  66  65 SW6       30.04S
MCMINNVILLE    MOSUNNY   79  70  73 SW5       30.03S
COLUMBIA       PTSUNNY   79  68  69 SW7       30.00S
SHELBYVILLE    MOSUNNY   79  68  69 SW7       30.03R
$$

TNZ017-018-042-046-047-220000-
NORTHEAST TENNESSEE

CITY           SKY/WX    TMP DP  RH WIND       PRES   REMARKS
TRI CITIES     CLOUDY    70  64  81 CALM      30.10F
ELIZABETHTON   DRIZZLE   68  66  94 E5        30.09F
$$

TNZ012-013-036-069-073-074-220000-
CENTRAL EAST TENNESSEE

CITY           SKY/WX    TMP DP  RH WIND       PRES   REMARKS
KNOXVILLE      PTSUNNY   75  64  68 E6        30.04F
OAK RIDGE      PTSUNNY   76  64  66 SE5       30.05F
GATLINBURG     SUNNY     73  63  68 CALM      30.05S
MORRISTOWN     PTSUNNY   72  64  78 VRB5G12   30.06F
JACKSBORO      PTSUNNY   73  66  78 VRB5      30.07S
$$

TNZ083-085-099-220000-
SOUTHEAST TENNESSEE

CITY           SKY/WX    TMP DP  RH WIND       PRES   REMARKS
CHATTANOOGA    PTSUNNY   80  65  59 SW9       30.03S
$$

SKY/WX REPORTED AS FAIR MEANS FEW OR NO CLOUDS BELOW
12 THOUSAND FEET.





USA.gov is the U.S. government's official web portal to all federal, state and local government web resources and services.